Location: Unspecified
(31.7329°N, 0.0000°E)
Time: 04:51:31
(UTC+00:00)

NOAA 18 - Visible Passes

Search period start: 04 April 2026 00:00
Search period end: 14 April 2026 00:00
Orbit: 836 x 857 km, 98.8° (Epoch: 29 March)

Date Brightness Start Highest point End Pass type
(mag) Time Alt. Az. Time Alt. Az. Time Alt. Az.
6 Apr 8.0 22:22:58 11° N 22:22:58 11° N 22:23:12 10° N visible
7 Apr 7.9 22:09:41 12° N 22:09:41 12° N 22:10:06 10° N visible
8 Apr 7.8 21:56:25 12° N 21:56:25 12° N 21:56:54 10° N visible
9 Apr 7.7 21:43:08 12° NNE 21:43:08 12° NNE 21:43:37 10° N visible
10 Apr 7.7 21:29:52 11° NNE 21:29:52 11° NNE 21:30:13 10° NNE visible
11 Apr 7.7 21:16:35 10° NNE 21:16:35 10° NNE 21:16:37 10° NNE visible
11 Apr 8.1 22:58:30 11° NNW 22:58:30 11° NNW 22:58:37 10° NNW visible
12 Apr 7.9 22:45:13 13° NNW 22:45:13 13° NNW 22:45:45 10° NNW visible
13 Apr 7.8 22:31:57 15° NNW 22:31:57 15° NNW 22:32:47 10° NNW visible
